Flag for Germany Weather past 2 weeks in Verden (Aller), Lower Saxony, Germany

Now
61 °F

Passing clouds.


Feels Like: 61 °F
Forecast: 52 / 65 °F
Wind: 8 mph from Southwest

Location: Bremen Airport

Current Time: Aug 30, 2014 at 10:31:00 PM

Latest Report: Aug 30, 2014 at 9:50 PM


Visibility: N/A

Pressure: 29.92 "Hg

Humidity: 94%

Dew point: 59 °F

Location of Verden (Aller)Location

Historic Weather in Verden (Aller) — Graph

°F

Verden (Aller) temperature yesterday

Maximum temperature yesterday: 72 °F (at 3:50 PM)
Minimum temperature yesterday: 59 °F (at 9:20 PM)
Average temperature yesterday: 65 °F

Past Weeks' High & Low Weather Summary

 TemperatureHumidityPressure
High75 °F (Aug 28, 2:50 PM)100% (Aug 16, 1:20 AM)30.04 "Hg (Aug 16, 1:20 AM)
Low43 °F (Aug 25, 4:50 AM)33% (Aug 27, 2:20 PM)29.53 "Hg (Aug 18, 6:20 AM)
Average57 °F79%29.87 "Hg
* Reported Aug 15 9:20 PM — Aug 30 9:20 PM, Verden (Aller), Weather by CustomWeather, © 2014

Note: Actual official high and low records may vary slightly from our data, if they occured in-between our weather recording intervals... More about our weather records

Advertising

Verden (Aller) weather history for previous 24 hours

 ConditionsComfort  
Time TempWeatherWind HumidityBarometerVisibility
9:20 PM
Aug 30
63 °FPassing clouds.8 mph88%29.89 "HgN/A
8:50 PM63 °FPartly sunny.7 mph88%29.92 "HgN/A
8:20 PM63 °FBroken clouds.7 mph88%29.92 "HgN/A
7:20 PM63 °FPartly sunny.10 mph88%29.92 "HgN/A
6:50 PM63 °FPartly sunny.10 mph88%29.92 "HgN/A
6:20 PM63 °FBroken clouds.9 mph88%29.92 "HgN/A
5:50 PM64 °FPartly sunny.10 mph83%29.92 "HgN/A
5:20 PM64 °FPartly sunny.12 mph83%29.92 "HgN/A
4:50 PM64 °FPartly sunny.13 mph88%29.92 "HgN/A
4:20 PM64 °FBroken clouds.10 mph88%29.92 "HgN/A
3:50 PM63 °FBroken clouds.10 mph94%29.92 "HgN/A
3:20 PM63 °FLight rain. Broken clouds.10 mph88%29.95 "Hg6 mi
2:20 PM64 °FPartly sunny.9 mph83%29.95 "HgN/A
1:50 PM64 °FDrizzle. Partly sunny.10 mph78%29.95 "HgN/A
1:20 PM63 °FPartly sunny.13 mph83%29.95 "HgN/A
12:50 PM63 °FPartly sunny.10 mph88%29.95 "HgN/A
12:20 PM63 °FPartly sunny.13 mph88%29.95 "HgN/A
11:50 AM63 °FPartly sunny.14 mph88%29.95 "HgN/A
11:20 AM61 °FLight rain. Broken clouds.8 mph94%29.95 "HgN/A
10:50 AM61 °FDrizzle. Partly sunny.13 mph88%29.95 "Hg3 mi
10:20 AM63 °FDrizzle. Partly sunny.10 mph83%29.92 "HgN/A
9:50 AM61 °FPartly sunny.12 mph83%29.95 "HgN/A
9:20 AM61 °FBroken clouds.10 mph83%29.92 "HgN/A
8:50 AM61 °FBroken clouds.10 mph83%29.92 "HgN/A
8:20 AM61 °FBroken clouds.9 mph83%29.92 "HgN/A
7:50 AM61 °FPartly sunny.8 mph83%29.92 "HgN/A
7:20 AM59 °FClear.9 mph88%29.92 "Hg10 mi
6:50 AM59 °FClear.8 mph88%29.92 "Hg10 mi
6:20 AM59 °FClear.7 mph88%29.92 "Hg10 mi
5:50 AM59 °FClear.7 mph88%29.92 "Hg10 mi
5:20 AM59 °FClear.8 mph88%29.92 "Hg10 mi
4:50 AM61 °FClear.8 mph88%29.95 "Hg10 mi
4:20 AM59 °FPassing clouds.9 mph94%29.95 "HgN/A
3:50 AM59 °FPartly cloudy.7 mph88%29.95 "HgN/A
3:20 AM59 °FPassing clouds.5 mph94%29.95 "HgN/A
2:50 AM61 °FSprinkles. Passing clouds.8 mph83%29.95 "HgN/A
2:20 AM59 °FClear.6 mph88%29.95 "Hg10 mi
1:50 AM57 °FClear.5 mph88%29.95 "Hg10 mi
1:20 AM57 °FClear.5 mph88%29.95 "Hg10 mi
12:50 AM57 °FClear.5 mph88%29.95 "Hg10 mi
12:20 AM59 °FClear.6 mph82%29.95 "Hg10 mi
11:50 PM
Aug 29
59 °FClear.7 mph82%29.95 "Hg10 mi
11:20 PM59 °FClear.7 mph82%29.95 "Hg10 mi
Weather by CustomWeather, © 2014

See weather overviewHow to use our weather pages